RH
10 11 12 10 8 10 11 11 13 12 10 13 15 17 22 24 23 23 22 22 23 24 24 25 26 26 26 29 34 40 44 51 51 53 63 88 91 56 66 56 67 75 74 87
10 12 10 8 10 11 10 12 12 11 10 13 13 16 14 23 24 22 22 20 22 22 24 27 27 29 27 31 35 41 47 54 56 47 53 55 70 64 58 56 61 64 75 74
10 9 8 9 11 11 11 11 12 12 11 10 14 32 25 19 23 21 21 20 18 22 25 29 30 32 31 38 36 42 51 59 58 51 53 59 59 63 65 65 58 65 75 77
8 7 8 9 11 10 11 9 10 11 12 17 23 19 31 57 25 24 21 20 19 20 24 30 41 66 33 33 34 44 54 61 57 59 58 65 51 58 55 60 62 76 74 74
7 8 8 11 10 9 11 10 11 11 12 11 11 15 18 17 24 24 22 20 19 22 24 27 43 58 33 36 37 44 56 69 69 69 57 60 60 84 84 56 65 69 68 64
5 4 6 9 8 8 8 10 11 10 11 14 16 21 21 31 20 18 20 20 20 20 26 30 34 39 33 35 40 46 59 85 85 82 88 83 70 67 82 68 49 47 46 54
6 5 6 6 8 7 8 10 14 15 14 19 16 24 15 14 16 17 17 20 20 20 26 33 38 40 42 43 44 51 66 81 75 77 77 78 76 83 82 61 58 62 61 62
6 6 5 5 7 8 8 8 10 21 14 34 45 40 14 14 18 18 18 18 19 21 26 34 42 40 41 47 51 58 67 76 68 70 76 77 74 61 62 66 58 56 55 57
5 5 4 4 5 5 6 8 5 6 7 13 26 22 16 16 20 22 21 21 23 24 28 35 35 39 43 52 56 60 67 75 69 65 68 69 69 70 71 74 59 50 57 49
4 6 4 4 4 5 4 4 7 7 16 19 19 13 14 18 22 26 24 24 28 29 32 32 35 44 43 47 59 64 71 73 64 60 61 61 64 64 63 62 64 64 62 63
3 4 6 5 6 6 5 6 6 6 7 12 13 15 31 74 32 25 26 29 33 33 33 33 37 44 46 45 59 61 65 65 58 56 58 57 54 54 52 52 56 59 61 64
4 3 6 6 4 4 4 5 5 7 12 10 11 28 13 32 17 22 27 32 34 35 33 36 41 46 48 52 58 60 58 54 50 56 57 53 52 52 50 53 52 54 60 61
4 5 6 6 4 4 5 5 4 4 5 12 12 14 14 13 17 24 31 34 39 38 38 42 44 48 55 59 58 54 54 53 49 48 44 45 45 45 50 52 55 56 60 60
15 4 5 6 7 5 8 6 6 5 7 9 8 16 21 13 19 29 33 37 39 40 44 44 46 54 63 58 58 58 51 48 43 46 51 55 52 52 48 54 56 56 59 61
4 6 6 4 4 4 5 5 6 6 6 7 7 8 8 14 18 29 33 43 43 43 42 48 50 54 58 63 60 55 49 47 50 55 54 59 60 59 61 61 60 58 58 58
5 9 7 7 4 4 5 4 4 4 5 6 6 8 6 14 20 30 36 44 44 44 44 47 52 54 55 57 56 54 54 52 52 54 58 61 63 63 61 61 59 58 54 55
11 8 10 11 7 6 7 5 5 5 5 6 8 8 8 10 23 31 39 45 42 44 45 48 51 49 49 48 52 53 54 49 54 56 60 62 63 64 62 58 57 57 56 56
16 16 11 10 11 14 6 4 4 5 4 5 5 6 11 11 18 27 34 42 39 43 46 49 44 44 42 40 40 49 46 54 56 58 58 59 60 62 60 58 58 57 53 55
11 15 16 16 13 10 7 6 6 6 7 5 6 7 14 16 23 31 32 34 36 41 43 42 40 40 40 40 45 50 49 50 53 56 57 56 57 60 59 57 57 55 54 53
10 12 16 18 20 18 11 6 6 6 9 6 6 9 14 21 31 32 31 30 34 38 39 39 39 37 41 46 46 52 52 54 56 56 54 56 57 58 57 58 59 57 55 51
17 19 18 17 20 16 10 7 5 13 11 7 7 9 16 24 19 27 28 32 35 41 40 40 40 42 46 44 46 51 54 55 54 53 56 57 56 57 58 59 57 54 54 57
22 20 17 17 21 21 10 13 15 11 9 8 13 9 14 20 20 27 31 37 40 43 42 40 43 45 43 44 48 51 52 53 56 57 58 59 59 47 46 57 58 57 58 62
68 47 16 21 16 21 12 13 11 15 21 19 16 10 19 20 28 30 35 41 44 44 44 41 44 48 47 46 47 48 59 57 56 56 57 57 56 48 49 54 55 48 56 38
22 53 24 20 17 31 14 12 14 17 16 19 18 13 19 23 27 32 37 43 47 45 45 42 46 48 52 50 49 54 56 55 54 56 56 52 52 52 48 40 36 34 33 31
22 36 32 21 19 16 16 23 26 25 19 18 19 18 21 25 30 36 44 47 46 47 44 47 47 49 52 50 50 48 54 53 50 51 46 43 34 43 42 40 33 32 40 35
22 25 28 23 34 38 35 30 27 27 23 20 21 23 25 29 36 41 47 48 52 51 48 48 49 51 50 50 50 52 50 51 49 46 37 31 28 31 29 31 36 54 58 58
Wind_Speed
18 16 16 20 14 11 6 8 2 5 3 8 7 8 19 17 16 15 15 16 15 15 15 14 13 12 13 9 12 11 8 9 6 6 5 4 5 4 4 4 5 7 9 9
21 18 19 16 5 6 11 8 10 5 4 8 9 7 11 20 19 16 15 15 16 15 17 13 12 13 12 13 12 12 10 10 9 7 5 4 5 4 6 3 4 6 8 10
23 17 19 16 8 12 13 13 4 6 10 18 13 8 12 13 17 17 15 14 15 16 17 13 6 5 8 12 14 13 12 12 10 8 5 5 5 4 2 3 3 4 7 10
23 20 18 18 15 15 18 11 3 11 14 3 24 3 11 14 17 17 17 16 15 16 16 16 9 7 9 6 8 13 13 13 11 9 8 8 4 5 4 4 1 3 4 4
23 19 22 17 17 18 15 3 8 12 14 19 14 9 10 13 19 18 15 16 16 17 13 19 19 14 13 7 8 10 10 9 9 8 2 4 2 2 4 4 3 3 1 3
19 15 23 16 19 18 13 15 9 14 15 15 8 10 14 8 6 11 16 15 16 19 14 16 20 16 10 8 8 11 11 3 6 5 11 9 6 3 2 3 2 2 1 4
19 18 12 15 20 22 21 15 12 15 15 3 13 16 11 13 9 6 5 15 16 17 18 19 14 14 10 11 11 11 11 8 8 4 8 10 4 3 2 2 5 4 3 5
18 19 19 18 20 17 18 18 15 18 17 9 11 12 6 12 12 8 7 9 14 15 17 16 14 12 12 11 11 11 11 8 6 5 5 6 5 2 4 6 4 4 3 4
18 20 18 19 17 21 19 19 21 26 26 9 15 11 26 15 14 8 12 11 13 14 17 17 16 13 10 11 11 10 10 7 7 7 6 7 6 5 6 4 3 4 6 6
20 13 17 17 15 17 20 15 12 14 22 17 21 7 1 14 15 12 13 15 14 15 16 15 13 13 11 13 11 11 9 8 8 8 7 7 6 6 5 6 6 6 7 8
22 12 16 15 17 20 16 18 15 20 15 16 13 5 10 18 14 15 15 15 16 16 15 15 14 12 9 10 15 12 12 11 10 9 7 6 6 6 5 6 6 7 7 7
19 13 15 16 15 18 24 21 22 15 17 14 15 3 20 24 21 14 17 16 16 16 16 15 14 14 12 12 12 12 12 11 10 8 7 6 6 5 6 5 5 6 6 6
16 13 15 18 19 21 12 19 21 23 18 17 14 3 8 7 14 14 17 17 16 16 16 16 15 13 14 13 13 12 10 10 10 8 8 6 6 5 6 5 6 7 7 7
9 17 15 16 17 14 20 21 17 19 16 14 16 11 16 10 15 15 16 18 17 16 16 16 15 14 15 12 12 11 11 9 8 8 7 6 6 6 7 6 7 8 8 8
16 17 17 18 20 14 20 20 22 24 22 20 16 16 12 16 17 18 19 18 18 19 18 17 16 16 16 14 12 11 11 9 9 8 8 7 6 7 7 7 8 9 9 8
16 16 14 20 14 19 13 16 18 23 23 21 21 20 17 15 16 16 19 20 20 19 18 18 18 18 17 16 13 12 10 9 8 8 8 8 8 8 8 7 7 8 8 7
12 13 15 14 17 17 21 22 18 20 21 17 19 18 13 10 18 18 20 19 20 20 20 20 19 18 17 16 14 12 11 10 9 9 9 8 8 8 8 8 7 7 7 7
12 10 10 13 14 20 17 16 17 20 20 18 18 18 3 4 12 15 18 20 20 20 21 20 18 17 16 16 15 12 11 9 9 9 8 8 8 8 8 7 6 5 4 4
14 11 9 12 13 15 15 17 14 17 18 17 19 17 11 6 12 14 18 20 19 20 19 18 17 17 17 16 14 12 11 10 10 9 8 7 7 7 8 6 5 4 3 2
19 15 11 12 13 15 16 18 13 15 16 18 18 16 12 14 12 11 19 19 20 21 19 18 18 17 16 15 14 12 11 10 9 9 8 7 7 7 7 5 5 3 4 3
12 13 14 13 12 13 14 8 17 16 11 18 22 14 16 16 13 21 21 20 20 19 21 19 18 16 16 15 13 12 11 10 9 9 9 8 8 7 6 5 3 2 1 2
16 16 13 14 17 18 6 9 7 3 11 10 4 9 13 13 9 25 23 23 22 21 21 20 17 16 15 14 12 12 11 11 10 10 9 8 8 9 7 5 4 3 3 6
1 6 11 5 5 16 8 9 10 12 12 13 13 5 13 14 17 23 23 23 22 21 19 18 17 17 14 13 11 12 12 11 11 10 9 9 7 4 4 4 4 7 7 4
9 27 22 4 11 3 23 14 14 18 12 9 12 8 14 16 21 22 22 21 20 19 18 17 18 17 14 12 11 12 12 11 11 10 9 8 8 6 5 8 6 2 1 4
11 10 16 12 12 14 19 10 12 14 15 9 8 6 14 18 21 22 20 21 18 19 17 16 16 15 14 13 12 13 12 12 11 9 9 9 8 8 6 2 2 2 5 5
15 12 9 11 12 9 11 11 13 14 14 11 7 13 15 21 22 23 20 18 14 15 17 15 15 15 14 13 12 12 12 11 10 8 8 6 7 8 4 3 6 7 2 9
Wind_Direction
210 233 236 242 228 6 309 336 50 96 116 274 235 232 161 188 199 191 187 172 178 183 172 166 182 181 175 195 172 175 193 153 192 188 189 184 218 216 231 223 230 224 241 220
232 226 244 250 81 253 254 246 240 212 207 261 263 9 188 176 204 200 195 180 178 182 153 168 179 171 192 178 178 174 180 177 199 188 196 195 184 210 230 262 219 254 262 275
231 210 236 259 191 243 244 252 301 325 300 256 317 79 269 279 193 205 199 196 184 181 167 136 195 156 265 174 176 171 179 171 191 182 175 187 176 205 209 259 228 256 251 262
235 239 237 212 234 234 258 232 198 266 279 255 214 236 164 268 199 200 197 190 192 185 167 143 142 75 221 229 165 163 174 173 179 185 181 205 225 207 130 196 166 286 195 254
233 227 240 236 230 238 255 141 289 288 285 281 295 321 179 194 181 186 203 201 194 172 192 162 137 176 216 184 184 156 164 170 155 167 200 195 206 18 138 159 175 145 219 298
252 232 238 221 240 243 252 260 261 258 260 264 60 295 138 134 137 156 180 203 195 167 182 135 156 175 194 131 147 149 151 109 153 144 105 346 292 211 257 121 178 120 58 124
218 238 237 248 234 240 236 234 243 237 234 211 355 315 117 142 113 129 187 176 187 175 161 146 138 166 149 157 156 143 140 152 127 122 142 173 242 326 325 296 57 44 59 14
216 214 210 213 239 237 212 238 245 252 255 52 41 263 114 105 107 125 146 164 177 172 153 148 158 159 155 145 146 132 143 145 163 169 173 151 174 140 63 50 70 58 48 51
227 224 199 210 216 237 234 217 245 259 268 210 168 200 273 140 125 137 147 159 157 159 153 157 166 154 147 132 142 138 136 128 152 142 136 143 145 115 91 72 24 33 34 14
257 272 202 188 229 229 250 263 227 246 262 272 263 211 334 174 138 146 146 148 146 153 151 157 162 138 162 144 122 124 126 126 127 120 127 105 102 87 83 64 48 42 31 25
247 238 242 183 204 230 216 238 250 270 234 262 264 200 100 56 283 158 153 149 154 153 158 155 147 147 145 139 117 131 129 139 135 114 109 101 91 83 68 68 51 36 41 20
234 251 225 204 231 218 250 218 234 244 252 260 287 163 213 186 207 154 146 148 150 155 152 148 137 144 145 131 138 135 145 138 118 122 123 113 100 89 79 59 70 45 43 30
217 231 253 235 202 221 230 255 219 242 250 254 257 262 107 103 124 148 142 149 151 152 149 135 144 148 135 138 136 143 142 133 138 144 124 107 103 93 79 65 57 55 40 36
293 244 231 248 227 213 207 235 255 265 259 242 247 191 161 171 150 152 151 149 155 156 147 148 146 142 133 152 139 144 134 138 124 96 94 101 84 66 67 70 66 62 54 46
239 251 247 257 269 254 240 213 226 243 251 260 265 257 248 184 174 166 156 153 163 156 162 155 144 155 141 141 148 144 137 123 118 126 124 102 92 88 82 78 72 67 56 54
221 247 250 250 252 255 250 254 244 222 241 249 263 273 283 95 122 163 163 162 172 164 158 156 147 146 145 147 151 138 136 132 126 119 111 113 112 112 103 89 81 78 78 69
224 228 247 243 245 244 242 239 239 250 246 229 246 251 265 238 157 174 165 168 173 163 164 151 157 154 149 151 143 145 137 132 131 125 127 122 122 114 102 98 94 86 76 68
249 260 259 250 241 243 251 243 222 249 244 241 246 256 280 238 143 166 164 173 172 161 159 156 158 152 153 145 143 137 132 128 128 132 129 130 131 121 114 111 102 102 98 85
231 249 246 254 238 255 241 247 244 225 233 242 242 239 133 160 133 156 171 173 167 159 157 159 153 150 146 136 139 135 139 139 138 137 135 138 140 131 134 135 132 136 149 164
229 208 256 261 277 251 243 245 205 231 251 245 234 238 150 149 187 169 171 165 158 155 157 153 146 143 135 139 142 143 142 142 141 135 134 137 142 144 149 145 166 177 229 151
199 245 217 227 250 260 278 301 229 202 247 219 230 211 160 185 219 144 162 156 153 153 153 145 146 143 145 146 146 147 145 146 139 136 138 141 146 150 154 171 185 189 254 320
235 201 225 236 246 250 138 329 261 244 250 271 30 241 164 184 226 148 154 150 152 154 144 148 149 147 149 149 150 148 144 136 143 145 145 152 166 201 161 179 182 199 237 229
38 250 248 306 212 342 331 285 307 32 352 348 348 288 134 166 143 150 151 149 151 152 153 155 148 147 145 150 150 146 137 148 151 154 156 169 178 179 156 190 195 226 207 278
201 184 247 273 260 209 299 328 350 349 311 324 314 287 154 160 156 155 149 149 152 150 161 150 148 149 146 143 147 139 150 153 158 160 171 168 186 189 189 205 189 261 350 346
301 47 299 255 257 268 267 12 6 335 307 299 280 187 176 150 152 152 150 149 152 157 153 148 156 148 146 149 150 150 155 164 167 171 183 185 163 206 166 281 59 13 60 11
288 274 223 268 58 2 354 348 329 321 310 266 209 163 157 156 152 153 145 143 144 155 146 156 151 146 149 153 154 152 159 173 170 176 186 192 156 188 187 198 177 212 185 186